Flag for Azerbaijan Weather past 2 weeks in Sumqayit, Azerbaijan

50 °F


Feels Like: 49 °F
Forecast: 48 / 59 °F
Wind: 3 mph from Northwest

Location: Baku / Bine Airport

Current Time: Nov 26, 2015 at 6:42:45 PM

Latest Report: Nov 26, 2015 at 6:00 PM

Visibility: 2 mi

Pressure: 29.86 "Hg

Humidity: 88%

Dew point: 46 °F

Location of SumqayitLocation

Historic Weather in Sumqayit — Graph


Sumqayit temperature yesterday

Maximum temperature yesterday: 55 °F (at 1:30 PM)
Minimum temperature yesterday: 50 °F (at 11:00 AM)
Average temperature yesterday: 52 °F

Past Weeks' High & Low Weather Summary

High61 °F (Nov 11, 5:00 PM)100% (Nov 13, 5:30 AM)30.36 "Hg (Nov 13, 5:30 AM)
Low39 °F (Nov 13, 5:30 AM)51% (Nov 12, 11:00 AM)29.47 "Hg (Nov 11, 8:30 PM)
Average52 °F80%30.06 "Hg
* Reported Nov 11 5:00 PM — Nov 26 5:30 PM, Sumqayit, Weather by CustomWeather, © 2015

Note: Actual official high and low records may vary slightly from our data, if they occured in-between our weather recording intervals... More about our weather records


Sumqayit weather history for previous 24 hours

Time TempWeatherWind HumidityBarometerVisibility
5:30 PM
Thu, Nov 26
50 °FFog.7 mph88%29.86 "Hg3 mi
5:00 PM52 °FPartly sunny.6 mph88%29.83 "Hg4 mi
4:30 PM54 °FPartly sunny.9 mph77%29.83 "Hg4 mi
4:00 PM55 °FPartly sunny.5 mph72%29.83 "Hg4 mi
3:30 PM57 °FPartly sunny.No wind67%29.83 "Hg4 mi
3:00 PM57 °FPartly sunny.No wind67%29.83 "Hg4 mi
2:30 PM57 °FPartly sunny.5 mph67%29.86 "Hg4 mi
2:00 PM55 °FPartly sunny.3 mph77%29.86 "Hg4 mi
1:30 PM57 °FPartly sunny.6 mph72%29.86 "Hg4 mi
1:00 PM55 °FPartly sunny.8 mph67%29.86 "Hg4 mi
12:30 PM55 °FPartly sunny.7 mph72%29.89 "Hg4 mi
12:00 PM55 °FPartly sunny.6 mph72%29.89 "Hg4 mi
11:30 AM55 °FSunny.6 mph72%29.89 "Hg10 mi
11:00 AM55 °FSunny.2 mph67%29.89 "Hg10 mi
10:30 AM54 °FSunny.No wind77%29.89 "Hg10 mi
10:00 AM52 °FSunny.6 mph77%29.89 "Hg10 mi
9:30 AM52 °FSunny.5 mph77%29.89 "Hg10 mi
9:00 AM52 °FSunny.3 mph77%29.89 "Hg10 mi
8:30 AM52 °FSunny.5 mph77%29.89 "Hg10 mi
7:30 AM52 °FClear.8 mph77%29.89 "Hg10 mi
5:30 AM52 °FClear.10 mph82%29.89 "Hg10 mi
5:00 AM52 °FClear.8 mph88%29.89 "Hg10 mi
3:30 AM54 °FPassing clouds.14 mph88%29.92 "Hg5 mi
3:00 AM54 °FPassing clouds.12 mph88%29.92 "Hg5 mi
1:00 AM52 °FPassing clouds.8 mph88%29.98 "Hg4 mi
12:30 AM52 °FPassing clouds.10 mph82%29.98 "Hg4 mi
12:00 AM52 °FPassing clouds.10 mph82%29.98 "Hg4 mi
11:30 PM
Wed, Nov 25
52 °FPassing clouds.10 mph88%29.98 "Hg4 mi
11:00 PM50 °FPassing clouds.12 mph94%29.98 "Hg4 mi
10:30 PM50 °FPassing clouds.12 mph94%30.01 "Hg4 mi
10:00 PM52 °FPassing clouds.8 mph82%30.01 "Hg5 mi
9:30 PM50 °FPassing clouds.7 mph88%30.01 "Hg5 mi
9:00 PM50 °FPassing clouds.9 mph82%30.01 "Hg5 mi
8:30 PM50 °FPassing clouds.7 mph88%30.01 "Hg5 mi
8:00 PM50 °FPassing clouds.9 mph88%30.01 "Hg5 mi
7:30 PM50 °FPassing clouds.6 mph88%30.04 "Hg4 mi
7:00 PM50 °FPassing clouds.5 mph88%30.04 "Hg4 mi
6:30 PM50 °FFog.2 mph94%30.04 "Hg3 mi
6:00 PM50 °FFog.5 mph94%30.04 "Hg3 mi
Weather by CustomWeather, © 2015

See weather overviewHow to use our weather pages